CZ-2D DEB (53944 NORAD) Tracking and Keplerian Element Data

This shows tracking and keplerian element data for the satellite.

Feedback or suggestion? Click here.




ElementValue
Catalog53944
NameCZ-2D DEB
Epoch Orbit438
Epoch Day298.22550412
Epoch Year2022
RAAN4.5602
Inclination34.9984
Eccentricity0.0007813
Argument of Perigee163.5285
Mean Anonmoly248.9611
Mean Motion15.26255683
Decay Rate0.00025063
L11 53944U 22120B 22298.22550412 .00025063 00000+0 94106-3 0 9994
L22 53944 34.9984 4.5602 0007813 163.5285 248.9611 15.26255683 4389



Live tracking and technical data element details for CZ-2D DEB (NORAD 53944). CZ-2D DEB can be tracked NOW for your location showing map with azimuth and elevation plus other details from your city location.







IsCatalogInMostPopularTable: catalog: 53944, numindb: 2
Update: records affected: 1



GetName: 53944 CZ-2D DEB

Hit Count: updated at: Thu, 08 Dec 2022 09:48:17 GMT